User: anonymous   Login
Location: Unspecified
(0.0000°N, 0.0000°E)
Time: 20:03:16
(UTC+00:00)
Language:

FENGMANIU-1 - Orbit

View from above orbital plane
View from above orbital plane
View from above satellite
View from above satellite

Ground track
Ground track

The orbit data is extracted from the following two-line orbital elements,

1 43192U 18015A   19341.43973979  .00001495  00000-0  62868-4 0  9996
2 43192  97.4198 107.3078 0017217  53.0457 347.5824 15.24858764102485
Epoch (UTC): 07 December 2019 10:33:13
Eccentricity: 0.0017217
inclination: 97.4198°
perigee height: 479 km
apogee height: 503 km
right ascension of ascending node: 107.3078°
argument of perigee: 53.0457°
revolutions per day: 15.24858764
mean anomaly at epoch: 347.5824°
orbit number at epoch: 10248

The dashed part of the orbit path shows where the satellite is in the earth's shadow,  

DLR